Home   Weather   Klagenfurt   Past weeks

Flag for Austria Past Weather in Klagenfurt, Carinthia, Austria — Yesterday and Last 2 Weeks

Now
48 °F

Passing clouds.


Feels Like: 47 °F
Forecast: 29 / 44 °F
Wind: 3 mph from East

Location: Klagenfurt-Flughafen

Current Time: Feb 26, 2017 at 4:07:25 pm

Latest Report: Feb 26, 2017 at 3:20 pm


Visibility: N/A

Pressure: 30.04 "Hg

Humidity: 46%

Dew Point: 28 °F

Location of KlagenfurtLocation

Past Weather in Klagenfurt — Graph

°F

Klagenfurt Temperature Yesterday

Maximum temperature yesterday: 48 °F (at 3:50 pm)
Minimum temperature yesterday: 28 °F (at 11:50 pm)
Average temperature yesterday: 37 °F

High & Low Weather Summary for the Past Weeks

 TemperatureHumidityPressure
High59 °F (Feb 23, 3:20 pm)100% (Feb 16, 7:20 am)30.66 "Hg (Feb 16, 7:20 am)
Low23 °F (Feb 15, 5:50 am)40% (Feb 25, 3:50 pm)29.65 "Hg (Feb 24, 3:20 am)
Average36 °F82%30.22 "Hg
* Reported Feb 11 2:20 pm — Feb 26 2:50 pm, Klagenfurt, Weather by CustomWeather, © 2017

Note: Actual official high and low records may vary slightly from our data, if they occured in-between our weather recording intervals... More about our weather records

Advertising

Klagenfurt Weather History for the Previous 24 Hours

Scroll right to see more
 ConditionsComfort  
Time TempWeatherWind HumidityBarometerVisibility
2:50 pm
Sun, Feb 26
46 °FSunny.2 mph46%30.04 "Hg10 mi
2:20 pm46 °FPassing clouds.3 mph46%30.04 "HgN/A
1:50 pm46 °FPassing clouds.3 mph46%30.07 "HgN/A
1:20 pm45 °FSunny.2 mph49%30.07 "Hg10 mi
12:50 pm45 °FSunny.1 mph49%30.07 "Hg10 mi
12:20 pm45 °FSunny.2 mph49%30.09 "Hg10 mi
11:50 am43 °FSunny.2 mph53%30.09 "Hg10 mi
11:20 am41 °FSunny.2 mph57%30.12 "Hg10 mi
10:50 am39 °FSunny.2 mph65%30.12 "Hg10 mi
10:20 am37 °FSunny.2 mph70%30.12 "Hg10 mi
9:50 am36 °FSunny.2 mph75%30.12 "Hg10 mi
9:20 am34 °FScattered clouds.2 mph81%30.15 "HgN/A
8:50 am32 °FScattered clouds.2 mph87%30.15 "HgN/A
8:20 am30 °FScattered clouds.1 mph93%30.15 "HgN/A
7:50 am27 °FScattered clouds.2 mph93%30.15 "HgN/A
7:20 am27 °FScattered clouds.3 mph86%30.15 "HgN/A
6:50 am25 °FScattered clouds.2 mph93%30.15 "HgN/A
6:20 am25 °FCold.2 mph93%30.18 "HgN/A
5:50 am27 °FChilly.3 mph93%30.18 "HgN/A
5:20 am27 °FChilly.3 mph93%30.18 "HgN/A
4:50 am27 °FChilly.2 mph93%30.18 "HgN/A
4:20 am27 °FChilly.3 mph93%30.18 "HgN/A
3:50 am27 °FChilly.2 mph93%30.18 "HgN/A
3:20 am27 °FChilly.2 mph93%30.21 "HgN/A
2:50 am28 °FChilly.2 mph86%30.21 "HgN/A
2:20 am28 °FChilly.5 mph86%30.21 "HgN/A
1:50 am28 °FChilly.5 mph86%30.24 "HgN/A
1:20 am28 °FChilly.2 mph93%30.24 "HgN/A
12:50 am28 °FChilly.2 mph93%30.24 "HgN/A
12:20 am28 °FChilly.5 mph93%30.24 "HgN/A
11:50 pm
Sat, Feb 25
28 °FChilly.2 mph93%30.24 "HgN/A
11:20 pm30 °FClear.3 mph86%30.24 "Hg10 mi
10:50 pm30 °FClear.2 mph86%30.24 "Hg10 mi
10:20 pm30 °FClear.7 mph86%30.24 "Hg10 mi
9:50 pm30 °FClear.5 mph86%30.24 "Hg10 mi
9:20 pm32 °FPassing clouds.2 mph80%30.24 "HgN/A
8:50 pm32 °FPassing clouds.1 mph80%30.24 "HgN/A
8:20 pm34 °FPassing clouds.5 mph81%30.24 "HgN/A
7:50 pm34 °FPassing clouds.3 mph81%30.21 "HgN/A
7:20 pm36 °FPassing clouds.3 mph75%30.21 "HgN/A
6:50 pm36 °FPassing clouds.1 mph75%30.21 "HgN/A
6:20 pm37 °FPassing clouds.2 mph70%30.21 "HgN/A
5:50 pm41 °FPassing clouds.3 mph61%30.18 "HgN/A
5:20 pm45 °FPassing clouds.3 mph46%30.18 "HgN/A
4:50 pm45 °FPassing clouds.3 mph42%30.18 "HgN/A
4:20 pm46 °FPassing clouds.3 mph40%30.18 "HgN/A
Weather by CustomWeather, © 2017

See weather overviewHow to use our weather pages

LIVE ANNULAR SOLAR ECLIPSE – Watch the eclipse as it happens